�N����,����,�~����,�C��,���x,�C��,����,���ϕ���,�ő�u�ԕ���,�ő厞����,���˗�,�I�_���x,�n�����x,�ő啗���N��,DTYPE
"21/08/05","00:10",0.0,26.2,86.6,1003.8,304.8,0.3,0.8,305.2,0.00,23.8,28.5,"00:02:56",1
"21/08/05","00:20",0.0,26.1,86.9,1003.6,314.7,0.1,0.5,311.5,0.00,23.8,28.7,"00:14:32",1
"21/08/05","00:30",0.0,26.1,87.1,1003.8,322.0,0.5,0.9,339.4,0.00,23.8,28.5,"00:20:48",1
"21/08/05","00:40",0.0,26.0,87.4,1003.6,303.2,0.3,0.6,289.0,0.00,23.8,28.4,"00:34:32",1
"21/08/05","00:50",0.0,25.9,87.7,1003.4,327.5,0.6,1.6,341.9,0.00,23.7,28.4,"00:49:12",1
"21/08/05","01:00",0.0,26.0,88.1,1003.6,305.2,0.8,1.3,345.5,0.00,23.9,28.2,"00:51:20",1
"21/08/05","01:10",0.0,26.0,88.2,1003.6,303.0,0.7,1.6,336.9,0.00,23.9,28.2,"01:01:28",1
"21/08/05","01:20",0.0,25.9,88.5,1003.1,280.2,0.5,1.2,310.6,0.00,23.9,28.2,"01:19:28",1
"21/08/05","01:30",0.0,25.9,88.7,1003.1,299.9,0.7,1.0,308.0,0.00,23.9,28.2,"01:20:16",1
"21/08/05","01:40",0.0,25.8,88.8,1003.4,314.7,0.8,1.3,338.7,0.00,23.9,28.3,"01:36:40",1
"21/08/05","01:50",0.0,25.8,89.0,1003.1,307.3,0.8,1.2,349.4,0.00,23.9,28.2,"01:40:32",1
"21/08/05","02:00",0.0,25.7,89.1,1003.6,290.5,0.7,1.6,324.8,0.00,23.8,28.1,"01:52:40",1
"21/08/05","02:10",0.0,25.7,89.2,1003.1,300.9,0.6,1.0,293.8,0.00,23.8,28.1,"02:00:24",1
"21/08/05","02:20",0.0,25.6,89.4,1003.1,293.4,0.6,1.1,315.3,0.00,23.8,28.0,"02:10:16",1
"21/08/05","02:30",0.0,25.5,89.5,1003.1,295.3,0.5,1.1,277.6,0.00,23.7,28.0,"02:28:24",1
"21/08/05","02:40",0.0,25.4,89.6,1003.4,307.6,0.6,1.0,341.1,0.00,23.6,27.9,"02:33:28",1
"21/08/05","02:50",0.0,25.3,89.8,1003.4,301.0,0.6,1.4,330.7,0.00,23.5,27.9,"02:48:32",1
"21/08/05","03:00",0.0,25.3,89.9,1003.8,298.4,0.6,1.4,319.5,0.00,23.6,27.9,"02:54:08",1
"21/08/05","03:10",0.0,25.2,90.0,1003.1,320.4,0.5,1.9,344.8,0.00,23.5,27.8,"03:09:12",1
"21/08/05","03:20",0.0,25.2,90.2,1003.4,325.8,1.1,1.9,345.1,0.00,23.5,27.9,"03:11:20",1
"21/08/05","03:30",0.0,25.1,90.3,1003.1,320.7,0.7,0.9,341.2,0.00,23.4,27.7,"03:22:48",1
"21/08/05","03:40",0.0,24.9,90.5,1002.9,283.5,0.6,1.1,322.5,0.00,23.3,27.7,"03:31:52",1
"21/08/05","03:50",0.0,25.0,90.7,1002.9,296.6,0.8,1.7,335.1,0.00,23.4,27.9,"03:47:52",1
"21/08/05","04:00",0.0,25.0,90.8,1003.1,327.0,0.8,1.4,319.8,0.00,23.4,27.7,"03:52:24",1
"21/08/05","04:10",0.0,24.9,90.9,1002.9,308.6,0.7,1.2,338.6,0.00,23.4,27.6,"04:08:32",1
"21/08/05","04:20",0.0,24.8,91.0,1003.1,297.6,0.6,1.4,326.5,0.00,23.3,27.7,"04:12:56",1
"21/08/05","04:30",0.0,24.7,91.2,1003.1,301.7,0.7,1.7,345.3,0.00,23.2,27.5,"04:23:36",1
"21/08/05","04:40",0.0,24.7,91.3,1003.1,328.2,1.0,2.7,343.0,0.00,23.2,27.5,"04:34:56",1
"21/08/05","04:50",0.0,24.6,91.5,1003.4,342.0,0.7,1.4,352.2,0.00,23.2,27.7,"04:46:00",1
"21/08/05","05:00",0.0,24.6,91.6,1003.4,344.4,0.8,1.3,340.1,0.00,23.2,27.4,"04:59:44",1
"21/08/05","05:10",0.0,24.5,91.7,1003.1,342.1,1.0,1.9,343.4,0.00,23.1,27.2,"05:00:16",1
"21/08/05","05:20",0.0,24.6,91.9,1003.1,337.9,1.2,1.9,348.9,0.00,23.2,27.4,"05:11:44",1
"21/08/05","05:30",0.0,24.6,92.0,1003.4,286.9,0.8,1.6,324.4,0.00,23.3,27.3,"05:27:52",1
"21/08/05","05:40",0.0,24.5,92.0,1003.6,331.3,1.0,1.8,342.5,0.00,23.2,27.6,"05:34:32",1
"21/08/05","05:50",0.0,24.5,92.2,1003.4,304.3,0.7,1.3,345.5,0.00,23.2,27.4,"05:40:08",1
"21/08/05","06:00",0.0,24.5,92.3,1003.4,297.6,0.8,2.0,243.6,0.00,23.2,27.2,"05:54:08",1
"21/08/05","06:10",0.0,24.6,92.3,1003.4,323.5,0.8,1.4,337.9,0.00,23.3,27.3,"06:01:44",1
"21/08/05","06:20",0.0,24.8,92.4,1003.4,319.7,1.1,1.9,348.6,0.00,23.5,27.2,"06:12:48",1
"21/08/05","06:30",0.0,25.4,92.4,1003.1,359.3,0.8,2.5,326.9,0.02,24.1,26.9,"06:20:56",1
"21/08/05","06:40",0.0,25.8,92.2,1003.4,353.1,0.6,1.3,338.6,0.03,24.5,27.1,"06:33:20",1
"21/08/05","06:50",0.0,26.6,92.0,1003.1,5.8,0.5,1.0,347.0,0.05,25.2,27.3,"06:44:08",1
"21/08/05","07:00",0.0,26.7,91.3,1003.6,355.9,0.6,1.3,349.7,0.07,25.2,27.0,"06:51:44",1
"21/08/05","07:10",0.0,27.0,90.5,1003.1,17.4,0.7,1.6,352.8,0.09,25.4,27.3,"07:07:36",1
"21/08/05","07:20",0.0,27.4,89.5,1003.1,5.5,0.6,1.2,348.5,0.11,25.6,27.3,"07:10:08",1
"21/08/05","07:30",0.0,28.3,88.1,1002.4,109.2,0.5,1.4,129.9,0.14,26.2,27.1,"07:26:40",1
"21/08/05","07:40",0.0,28.7,85.9,1002.2,164.9,0.5,1.1,143.2,0.16,26.1,27.2,"07:30:16",1
"21/08/05","07:50",0.0,29.2,84.0,1002.6,216.7,0.5,1.6,223.2,0.19,26.3,27.2,"07:42:16",1
"21/08/05","08:00",0.0,29.6,81.4,1003.1,188.2,0.7,1.4,149.2,0.21,26.1,27.5,"07:58:08",1
"21/08/05","08:10",0.0,30.1,79.2,1003.1,151.0,0.6,1.2,218.8,0.24,26.1,27.2,"08:00:08",1
"21/08/05","08:20",0.0,30.9,76.6,1003.6,143.0,0.5,1.4,111.9,0.26,26.3,27.2,"08:16:48",1
"21/08/05","08:30",0.0,31.4,74.1,1003.8,88.9,0.5,1.3,162.3,0.29,26.3,27.2,"08:20:08",1
"21/08/05","08:40",0.0,31.3,72.6,1004.1,12.0,0.8,1.6,345.9,0.31,25.8,27.3,"08:33:20",1
"21/08/05","08:50",0.0,31.6,71.5,1003.8,38.4,0.7,1.9,59.4,0.33,25.9,27.3,"08:42:16",1
"21/08/05","09:00",0.0,31.8,70.3,1004.1,148.5,0.7,1.4,124.9,0.36,25.8,27.3,"08:52:00",1
"21/08/05","09:10",0.0,31.9,68.4,1004.1,206.0,0.3,1.3,206.9,0.38,25.4,27.3,"09:00:16",1
"21/08/05","09:20",0.0,32.7,66.2,1004.3,46.4,0.7,1.4,0.5,0.39,25.6,27.5,"09:14:56",1
"21/08/05","09:30",0.0,32.6,66.9,1004.3,184.2,1.2,2.7,195.1,0.41,25.7,27.5,"09:27:20",1
"21/08/05","09:40",0.0,32.9,66.4,1004.5,141.2,1.1,2.0,115.8,0.44,25.8,27.8,"09:33:36",1
"21/08/05","09:50",0.0,33.2,65.6,1004.3,127.2,1.1,2.2,107.4,0.45,25.9,27.6,"09:41:52",1
"21/08/05","10:00",0.0,33.4,63.5,1004.5,132.4,0.7,1.7,127.0,0.47,25.6,27.7,"09:50:08",1
"21/08/05","10:10",0.0,34.1,62.0,1004.3,25.6,0.7,2.4,41.4,0.48,25.8,27.8,"10:05:52",1
"21/08/05","10:20",0.0,33.9,62.2,1004.3,319.9,0.8,2.2,349.6,0.50,25.7,27.8,"10:10:24",1
"21/08/05","10:30",0.0,34.0,61.2,1004.5,60.5,0.8,2.4,65.3,0.51,25.5,28.1,"10:28:24",1
"21/08/05","10:40",0.0,34.5,61.3,1004.3,336.9,0.5,2.0,224.8,0.52,26.0,28.3,"10:36:00",1
"21/08/05","10:50",0.0,35.1,59.0,1004.3,75.5,0.6,1.7,114.8,0.53,25.9,28.2,"10:42:56",1
"21/08/05","11:00",0.0,35.1,58.1,1004.3,151.8,1.1,2.6,124.9,0.54,25.7,28.5,"10:53:52",1
"21/08/05","11:10",0.0,35.4,57.8,1004.3,298.3,0.7,2.1,0.6,0.55,25.9,28.5,"11:09:44",1
"21/08/05","11:20",0.0,35.2,58.2,1004.1,222.6,1.3,3.6,220.9,0.56,25.8,28.5,"11:16:16",1
"21/08/05","11:30",0.0,35.5,58.5,1003.6,204.1,1.2,2.9,171.5,0.56,26.1,28.8,"11:23:44",1
"21/08/05","11:40",0.0,35.4,57.3,1004.1,170.5,1.6,3.1,212.8,0.57,25.7,29.0,"11:36:24",1
"21/08/05","11:50",0.0,35.7,55.9,1003.1,248.4,1.3,4.3,218.5,0.58,25.6,29.1,"11:44:32",1
"21/08/05","12:00",0.0,35.7,55.5,1003.1,182.7,1.8,3.4,138.0,0.59,25.4,29.1,"11:56:16",1
"21/08/05","12:10",0.0,36.4,56.1,1003.4,151.2,1.3,2.6,197.9,0.60,26.3,29.3,"12:04:48",1
"21/08/05","12:20",0.0,36.8,53.4,1003.4,164.4,1.8,4.7,210.9,0.62,25.8,29.3,"12:18:08",1
"21/08/05","12:30",0.0,36.9,53.4,1002.9,191.2,1.8,3.9,219.8,0.63,25.9,29.2,"12:24:00",1
"21/08/05","12:40",0.0,36.9,52.6,1002.6,144.0,1.6,3.6,166.7,0.59,25.6,29.4,"12:32:40",1
"21/08/05","12:50",0.0,36.4,49.4,1002.6,231.8,1.8,3.6,238.1,0.42,24.1,29.7,"12:45:20",1
"21/08/05","13:00",0.0,36.8,54.4,1002.6,146.8,1.7,5.5,229.4,0.56,26.1,29.7,"12:50:08",1
"21/08/05","13:10",0.0,37.4,49.4,1002.6,126.3,1.5,3.9,133.1,0.57,25.1,29.9,"13:05:28",1
"21/08/05","13:20",0.0,37.5,47.7,1002.6,119.1,1.6,4.0,160.8,0.57,24.6,29.8,"13:12:00",1
"21/08/05","13:30",0.0,38.0,46.2,1002.4,115.1,1.1,2.6,89.1,0.56,24.5,30.0,"13:25:12",1
"21/08/05","13:40",0.0,37.8,47.4,1002.6,144.5,1.5,2.8,191.8,0.56,24.7,29.9,"13:32:00",1
"21/08/05","13:50",0.0,37.7,47.8,1002.6,135.2,1.3,3.5,145.1,0.54,24.8,30.1,"13:48:32",1
"21/08/05","14:00",0.0,38.1,45.5,1002.4,109.3,1.1,2.4,113.0,0.49,24.3,30.3,"13:52:00",1
"21/08/05","14:10",0.0,37.9,45.4,1002.2,104.8,1.3,3.4,114.5,0.50,24.1,30.2,"14:02:00",1
"21/08/05","14:20",0.0,37.5,46.9,1001.9,107.2,0.8,3.3,159.4,0.28,24.3,30.3,"14:10:48",1
"21/08/05","14:30",0.0,37.6,44.3,1001.9,107.2,1.5,3.5,111.3,0.43,23.4,30.5,"14:25:12",1
"21/08/05","14:40",0.0,37.4,46.9,1001.5,158.1,1.5,2.7,127.0,0.42,24.2,30.3,"14:31:28",1
"21/08/05","14:50",0.0,38.4,42.3,1001.5,65.1,0.8,2.6,14.0,0.46,23.4,30.6,"14:49:20",1
"21/08/05","15:00",0.0,38.9,43.5,1001.7,102.7,1.0,2.5,67.9,0.46,24.3,30.4,"14:56:56",1
"21/08/05","15:10",0.0,37.5,44.8,1001.5,158.1,1.5,3.5,215.4,0.33,23.5,30.6,"15:08:24",1
"21/08/05","15:20",0.0,37.9,45.5,1001.0,142.5,1.3,2.8,137.7,0.43,24.1,30.6,"15:14:48",1
"21/08/05","15:30",0.0,38.1,42.2,1001.0,132.0,1.2,2.7,121.9,0.40,23.1,30.4,"15:25:20",1
"21/08/05","15:40",0.0,38.4,46.3,1001.0,128.1,0.8,2.4,127.1,0.31,24.9,30.5,"15:33:52",1
"21/08/05","15:50",0.0,39.0,45.3,1001.0,98.2,1.0,2.7,113.2,0.37,25.0,30.7,"15:49:36",1
"21/08/05","16:00",0.0,38.3,46.3,1000.8,100.5,1.3,2.9,103.6,0.33,24.8,30.6,"15:54:32",1
"21/08/05","16:10",0.0,38.1,47.7,1001.0,103.9,0.8,3.9,94.5,0.22,25.1,30.6,"16:07:12",1
"21/08/05","16:20",0.0,36.8,48.8,1000.5,90.6,1.2,2.7,65.0,0.07,24.3,30.7,"16:12:16",1
"21/08/05","16:30",0.0,35.8,51.5,1000.5,116.1,1.1,2.6,28.2,0.03,24.3,30.6,"16:22:48",1
"21/08/05","16:40",0.0,36.2,52.2,1000.0,86.4,1.1,2.4,65.6,0.14,24.9,30.7,"16:33:36",1
"21/08/05","16:50",0.0,37.1,49.0,1000.5,60.9,1.0,1.9,38.0,0.20,24.6,30.6,"16:42:16",1
"21/08/05","17:00",0.0,37.2,47.7,1000.8,56.6,1.1,2.6,63.6,0.18,24.3,30.7,"16:53:12",1
"21/08/05","17:10",0.0,36.6,46.5,1000.3,96.9,1.1,2.7,18.9,0.10,23.3,30.5,"17:09:00",1
"21/08/05","17:20",0.0,37.0,47.1,1000.8,75.3,0.7,2.6,21.6,0.14,23.9,30.7,"17:18:24",1
"21/08/05","17:30",0.0,36.8,44.8,1000.5,77.3,1.2,3.1,81.1,0.11,22.9,30.5,"17:27:36",1
"21/08/05","17:40",0.0,36.1,44.5,1000.8,114.8,1.2,2.7,130.7,0.09,22.1,30.5,"17:34:48",1
"21/08/05","17:50",0.0,35.7,43.8,1000.3,123.2,1.1,2.8,119.0,0.06,21.5,30.5,"17:48:16",1
"21/08/05","18:00",0.0,35.6,42.4,1000.5,108.3,1.0,2.5,128.6,0.00,20.9,30.7,"17:51:44",1
"21/08/05","18:10",0.0,35.3,42.7,1000.3,119.8,1.0,1.9,123.9,0.00,20.7,30.5,"18:02:32",1
"21/08/05","18:20",0.0,35.0,43.1,1000.3,96.1,0.8,1.8,359.4,0.00,20.6,30.3,"18:11:04",1
"21/08/05","18:30",0.0,34.4,45.1,1000.3,33.0,0.7,2.0,41.4,0.00,20.8,30.5,"18:21:36",1
"21/08/05","18:40",0.0,34.0,49.3,999.6,27.6,0.6,1.4,58.3,0.00,21.9,30.5,"18:30:08",1
"21/08/05","18:50",0.0,32.7,55.0,999.1,339.8,0.7,1.6,31.5,0.00,22.5,30.2,"18:42:24",1
"21/08/05","19:00",0.0,31.2,49.8,999.1,45.2,0.7,1.8,184.5,0.00,19.5,30.1,"18:58:40",1
"21/08/05","19:10",0.0,32.3,54.8,998.9,63.4,1.3,3.1,156.3,0.00,22.1,30.3,"19:01:12",1
"21/08/05","19:20",0.0,30.6,59.3,998.2,340.8,1.0,1.7,338.3,0.00,21.8,30.2,"19:17:52",1
"21/08/05","19:30",0.0,29.9,62.4,997.9,5.9,0.6,1.3,346.7,0.00,22.0,30.1,"19:21:04",1
"21/08/05","19:40",0.0,29.3,63.9,998.2,333.8,0.7,1.9,342.8,0.00,21.8,30.2,"19:31:28",1
"21/08/05","19:50",0.0,28.9,64.7,997.4,351.0,0.7,1.6,328.3,0.00,21.6,29.8,"19:41:20",1
"21/08/05","20:00",0.0,28.5,65.2,998.4,296.4,0.7,1.7,249.5,0.00,21.4,29.9,"19:59:36",1
"21/08/05","20:10",0.0,28.4,65.6,998.9,327.4,0.5,1.2,357.7,0.00,21.4,29.9,"20:03:12",1
"21/08/05","20:20",0.0,28.2,66.0,999.1,269.6,0.5,1.6,254.7,0.00,21.3,29.7,"20:11:44",1
"21/08/05","20:30",0.0,27.9,66.4,999.1,281.5,0.7,2.2,239.8,0.00,21.1,29.7,"20:28:24",1
"21/08/05","20:40",0.0,27.8,66.5,999.1,283.8,0.7,1.7,341.0,0.00,21.0,29.6,"20:38:56",1
"21/08/05","20:50",0.0,27.5,66.5,1000.0,306.0,0.7,1.9,347.7,0.00,20.7,29.6,"20:40:40",1
"21/08/05","21:00",0.0,27.3,67.2,999.6,339.9,0.7,1.6,348.9,0.00,20.7,29.5,"20:55:28",1
"21/08/05","21:10",0.0,26.9,68.1,1000.3,291.9,0.5,1.3,343.3,0.00,20.6,29.1,"21:06:56",1
"21/08/05","21:20",0.0,26.9,68.4,1000.3,274.1,0.8,1.6,307.0,0.00,20.6,29.3,"21:18:24",1
"21/08/05","21:30",0.0,27.1,69.4,1000.3,328.8,1.1,2.5,335.4,0.00,21.1,29.2,"21:25:04",1
"21/08/05","21:40",0.0,26.3,71.5,1000.3,326.6,0.8,1.7,347.1,0.00,20.8,29.3,"21:31:12",1
"21/08/05","21:50",0.0,25.9,72.1,1000.8,280.2,0.6,1.3,263.0,0.00,20.5,29.2,"21:46:16",1
"21/08/05","22:00",0.0,26.2,72.0,1000.8,16.2,0.7,1.4,350.4,0.00,20.8,29.2,"21:59:52",1
"21/08/05","22:10",0.0,25.7,73.5,1000.8,345.0,1.0,1.9,343.2,0.00,20.6,29.0,"22:03:20",1
"21/08/05","22:20",0.0,25.8,74.5,1000.5,350.8,1.1,1.8,350.9,0.00,21.0,29.1,"22:14:00",1
"21/08/05","22:30",0.0,25.1,75.7,1000.8,308.5,0.6,1.4,341.2,0.00,20.5,28.9,"22:22:16",1
"21/08/05","22:40",0.0,25.1,75.4,1001.0,306.7,0.6,1.4,305.4,0.00,20.5,28.9,"22:30:56",1
"21/08/05","22:50",0.0,25.0,75.8,1001.0,340.5,0.6,1.2,348.8,0.00,20.5,28.8,"22:44:16",1
"21/08/05","23:00",0.0,25.0,76.8,1001.2,324.1,0.8,1.2,312.6,0.00,20.7,28.6,"22:52:48",1
"21/08/05","23:10",0.0,24.7,76.4,1001.0,317.0,1.0,2.0,329.0,0.00,20.3,28.7,"23:08:16",1
"21/08/05","23:20",0.0,24.9,76.0,1001.0,318.5,0.6,1.0,320.5,0.00,20.4,28.6,"23:17:04",1
"21/08/05","23:30",0.0,24.7,75.9,1001.2,313.2,0.8,1.7,338.5,0.00,20.2,28.6,"23:24:24",1
"21/08/05","23:40",0.0,24.6,75.7,1001.0,306.3,0.3,0.9,335.5,0.00,20.1,28.5,"23:31:20",1
"21/08/05","23:50",0.0,24.4,76.4,1001.0,320.5,0.7,1.1,334.1,0.00,20.0,28.2,"23:41:44",1
"21/08/05","24:00",0.0,24.3,76.8,1001.0,313.3,1.0,1.8,348.3,0.00,20.0,28.3,"23:50:48",1
